TimeEET,TemperatureF,Dew PointF,Humidity,Sea Level PressureIn,VisibilityMPH,Wind Direction,Wind SpeedMPH,Gust SpeedMPH,PrecipitationIn,Events,Conditions,WindDirDegrees,DateUTC
12:00 AM,73.4,57.2,57,29.83,-9999.0,NW,8.1,-,N/A,,Clear,310,2012-11-08 22:00:00
1:00 AM,73.4,57.2,57,29.83,-9999.0,WNW,10.4,-,N/A,,Clear,300,2012-11-08 23:00:00
2:00 AM,73,58,49,29.84,6,WNW,6.9,,,,,290,2012-11-09 00:00:00
2:00 AM,73.4,57.2,57,29.83,-9999.0,WNW,6.9,-,N/A,,Clear,290,2012-11-09 00:00:00
4:00 AM,69.8,57.2,64,29.83,-9999.0,WNW,5.8,-,N/A,,Clear,300,2012-11-09 02:00:00
5:00 AM,69.8,57.2,64,29.83,-9999.0,WNW,6.9,-,N/A,,Clear,300,2012-11-09 03:00:00
6:00 AM,69.8,59.0,68,29.83,-9999.0,WNW,9.2,-,N/A,,Clear,290,2012-11-09 04:00:00
7:00 AM,69.8,60.8,73,29.86,-9999.0,WNW,9.2,-,N/A,,Clear,290,2012-11-09 05:00:00
8:00 AM,74,62,59,29.88,6,NW,12.7,,,,,310,2012-11-09 06:00:00
8:00 AM,75.2,62.6,65,29.86,-9999.0,NW,12.7,-,N/A,,Clear,310,2012-11-09 06:00:00
9:00 AM,78.8,64.4,61,29.89,-9999.0,NNW,10.4,-,N/A,,Clear,340,2012-11-09 07:00:00
10:00 AM,82.4,66.2,58,29.89,-9999.0,North,13.8,-,N/A,,Clear,360,2012-11-09 08:00:00
11:00 AM,84.2,64.4,51,29.86,-9999.0,North,15.0,-,N/A,,Clear,360,2012-11-09 09:00:00
12:00 PM,84.2,66.2,55,29.86,-9999.0,North,16.1,-,N/A,,Clear,360,2012-11-09 10:00:00
1:00 PM,86.0,64.4,48,29.80,-9999.0,North,16.1,-,N/A,,Clear,10,2012-11-09 11:00:00
2:00 PM,84,68,49,29.81,6,NNE,13.8,,,,,30,2012-11-09 12:00:00
2:00 PM,84.2,68.0,58,29.80,-9999.0,NNE,13.8,-,N/A,,Clear,30,2012-11-09 12:00:00
3:00 PM,86.0,64.4,48,29.80,-9999.0,North,12.7,-,N/A,,Clear,10,2012-11-09 13:00:00
4:00 PM,84.2,66.2,55,29.80,-9999.0,North,13.8,-,N/A,,Clear,10,2012-11-09 14:00:00
5:00 PM,82.4,66.2,58,29.83,-9999.0,North,15.0,-,N/A,,Clear,360,2012-11-09 15:00:00
6:00 PM,80.6,68.0,65,29.83,-9999.0,North,11.5,-,N/A,,Clear,350,2012-11-09 16:00:00
7:00 PM,80.6,66.2,61,29.86,-9999.0,NNW,11.5,-,N/A,,Clear,340,2012-11-09 17:00:00
8:00 PM,78,64,52,29.88,6,NW,15.0,,,,,320,2012-11-09 18:00:00
8:00 PM,78.8,64.4,61,29.86,-9999.0,NW,15.0,-,N/A,,Clear,320,2012-11-09 18:00:00
9:00 PM,77.0,62.6,61,29.89,-9999.0,NW,15.0,-,N/A,,Clear,320,2012-11-09 19:00:00
10:00 PM,77.0,59.0,54,29.92,-9999.0,NNW,13.8,-,N/A,,Clear,340,2012-11-09 20:00:00
11:00 PM,75.2,51.8,44,29.92,-9999.0,North,12.7,-,N/A,,Clear,350,2012-11-09 21:00:00